Flag for U.S.A. Weather past 2 weeks in Chattanooga, Tennessee, U.S.A.

Now
56 °F

Passing clouds.


Feels Like: 56 °F
Forecast: 55 / 73 °F
Wind: No wind

Location: Lovell Field

Current Time: Apr 2, 2015 at 12:51:24 AM

Latest Report: Apr 1, 2015 at 11:53 PM


Visibility: 10 mi

Pressure: 30.09 "Hg

Humidity: 65%

Dew point: 44 °F

Location of ChattanoogaLocation

Historic Weather in Chattanooga — Graph

°F

Chattanooga temperature yesterday

Maximum temperature yesterday: 77 °F (at 3:53 PM)
Minimum temperature yesterday: 55 °F (at 6:53 AM)
Average temperature yesterday: 65 °F

Past Weeks' High & Low Weather Summary

 TemperatureHumidityPressure
High79 °F (Mar 31, 5:53 PM)97% (Mar 19, 5:53 PM)30.42 "Hg (Mar 19, 5:53 PM)
Low29 °F (Mar 29, 6:53 AM)16% (Mar 28, 6:53 PM)29.72 "Hg (Mar 26, 5:53 PM)
Average56 °F61%30.07 "Hg
* Reported Mar 17 11:53 PM — Apr 1 11:53 PM, Chattanooga, Weather by CustomWeather, © 2015

Note: Actual official high and low records may vary slightly from our data, if they occured in-between our weather recording intervals... More about our weather records

Advertising

Chattanooga weather history for previous 24 hours

 ConditionsComfort  
Time TempWeatherWind HumidityBarometerVisibility
11:53 PM
Wed, Apr 1
56 °FPassing clouds.No wind65%30.09 "Hg10 mi
10:53 PM58 °FPassing clouds.No wind60%30.09 "Hg10 mi
9:53 PM62 °FPartly cloudy.No wind52%30.08 "Hg10 mi
8:53 PM67 °FBroken clouds.No wind33%30.05 "Hg10 mi
7:53 PM74 °FPartly sunny.6 mph21%30.02 "Hg10 mi
6:53 PM76 °FScattered clouds.6 mph21%30.01 "Hg10 mi
5:53 PM77 °FScattered clouds.6 mph20%30.01 "Hg10 mi
4:53 PM77 °FPartly sunny.No wind21%30.02 "Hg10 mi
3:53 PM77 °FPartly sunny.No wind21%30.04 "Hg10 mi
2:53 PM74 °FBroken clouds.No wind21%30.06 "Hg10 mi
1:53 PM73 °FBroken clouds.3 mph24%30.07 "Hg10 mi
12:53 PM71 °FScattered clouds.6 mph27%30.09 "Hg10 mi
11:53 AM68 °FBroken clouds.12 mph28%30.10 "Hg10 mi
10:53 AM65 °FScattered clouds.14 mph34%30.09 "Hg10 mi
9:53 AM62 °FScattered clouds.10 mph38%30.07 "Hg10 mi
8:53 AM58 °FScattered clouds.7 mph56%30.07 "Hg10 mi
7:53 AM56 °FPassing clouds.5 mph67%30.04 "Hg10 mi
6:53 AM55 °FPassing clouds.5 mph74%30.01 "Hg10 mi
5:53 AM57 °FPassing clouds.6 mph78%29.98 "Hg10 mi
4:53 AM56 °FClear.No wind93%29.97 "Hg10 mi
3:53 AM58 °FClear.No wind90%29.95 "Hg10 mi
2:53 AM60 °FClear.3 mph86%29.93 "Hg10 mi
1:53 AM61 °FClear.3 mph87%29.92 "Hg10 mi
12:53 AM63 °FClear.No wind81%29.92 "Hg10 mi
Weather by CustomWeather, © 2015

See weather overviewHow to use our weather pages